Flag for Russia Weather past 2 weeks in Samara, Russia

Now
61 °F

Clear.


Feels Like: 61 °F
Forecast: 57 / 82 °F
Wind: 6 mph from West

Location: Samara

Current Time: May 23, 2015 at 1:05:22 AM

Latest Report: May 23, 2015 at 12:30 AM


Visibility: 10 mi

Pressure: 30.07 "Hg

Humidity: 55%

Dew point: 45 °F

Location of SamaraLocation

Historic Weather in Samara — Graph

°F

Samara temperature yesterday

Maximum temperature yesterday: 77 °F (at 2:00 PM)
Minimum temperature yesterday: 54 °F (at 1:00 AM)
Average temperature yesterday: 66 °F

Past Weeks' High & Low Weather Summary

 TemperatureHumidityPressure
High77 °F (May 22, 2:00 PM)88% (May 14, 10:00 PM)30.24 "Hg (May 14, 10:00 PM)
Low37 °F (May 18, 4:30 AM)15% (May 8, 6:30 PM)29.42 "Hg (May 17, 4:00 AM)
Average54 °F57%29.83 "Hg
* Reported Midnight between May 7 and May 8 — Midnight between May 22 and May 23, Samara, Weather by CustomWeather, © 2015

Note: Actual official high and low records may vary slightly from our data, if they occured in-between our weather recording intervals... More about our weather records

Advertising

Samara weather history for previous 24 hours

 ConditionsComfort  
Time TempWeatherWind HumidityBarometerVisibility
12:00 AM
Sat, May 23
61 °FClear.6 mph55%30.07 "Hg10 mi
11:30 PM
Fri, May 22
63 °FClear.6 mph49%30.07 "Hg10 mi
11:00 PM63 °FClear.3 mph49%30.07 "Hg10 mi
10:30 PM66 °FClear.3 mph40%30.07 "Hg10 mi
10:00 PM68 °FClear.3 mph35%30.07 "Hg10 mi
9:30 PM68 °FSunny.3 mph35%30.07 "Hg10 mi
9:00 PM70 °FSunny.3 mph33%30.07 "Hg10 mi
8:30 PM72 °FSunny.3 mph31%30.07 "Hg10 mi
8:00 PM72 °FScattered clouds.6 mph31%30.07 "HgN/A
7:30 PM73 °FBroken clouds.8 mph31%30.07 "HgN/A
7:00 PM75 °FPartly sunny.10 mph27%30.07 "HgN/A
6:30 PM75 °FScattered clouds.13 mph25%30.07 "HgN/A
6:00 PM75 °FScattered clouds.10 mph24%30.07 "HgN/A
5:30 PM77 °FScattered clouds.10 mph24%30.07 "HgN/A
5:00 PM75 °FBroken clouds.15 mph24%30.07 "HgN/A
4:30 PM75 °FBroken clouds.17 mph25%30.07 "HgN/A
4:00 PM77 °FBroken clouds.13 mph24%30.07 "HgN/A
3:30 PM75 °FBroken clouds.15 mph22%30.07 "HgN/A
3:00 PM77 °FBroken clouds.15 mph22%30.07 "HgN/A
2:30 PM77 °FBroken clouds.15 mph22%30.07 "HgN/A
2:00 PM77 °FBroken clouds.13 mph22%30.09 "HgN/A
1:30 PM75 °FBroken clouds.13 mph25%30.09 "HgN/A
1:00 PM75 °FBroken clouds.15 mph24%30.09 "HgN/A
12:30 PM75 °FBroken clouds.13 mph24%30.09 "HgN/A
12:00 PM75 °FBroken clouds.15 mph25%30.09 "HgN/A
11:30 AM73 °FPassing clouds.15 mph23%30.09 "HgN/A
11:00 AM73 °FPassing clouds.13 mph31%30.09 "HgN/A
10:30 AM73 °FPassing clouds.13 mph31%30.09 "HgN/A
10:00 AM72 °FPassing clouds.13 mph36%30.09 "HgN/A
9:30 AM70 °FPassing clouds.10 mph40%30.12 "HgN/A
9:00 AM68 °FSunny.13 mph40%30.12 "Hg10 mi
8:30 AM66 °FPassing clouds.8 mph46%30.12 "HgN/A
8:00 AM63 °FSunny.10 mph52%30.12 "Hg10 mi
7:30 AM61 °FSunny.10 mph52%30.12 "Hg10 mi
7:00 AM57 °FSunny.13 mph55%30.12 "Hg10 mi
6:30 AM55 °FSunny.10 mph59%30.12 "Hg10 mi
6:00 AM55 °FSunny.10 mph59%30.12 "Hg10 mi
5:30 AM54 °FSunny.13 mph63%30.09 "Hg10 mi
5:00 AM54 °FClear.13 mph63%30.09 "Hg10 mi
4:30 AM54 °FClear.15 mph63%30.09 "Hg10 mi
4:00 AM54 °FClear.13 mph63%30.09 "Hg10 mi
3:30 AM54 °FClear.13 mph63%30.09 "Hg10 mi
3:00 AM54 °FClear.10 mph63%30.09 "Hg10 mi
2:30 AM54 °FClear.10 mph63%30.09 "Hg10 mi
2:00 AM54 °FClear.10 mph67%30.09 "Hg10 mi
1:30 AM55 °FClear.8 mph59%30.09 "Hg10 mi
1:00 AM54 °FClear.8 mph67%30.09 "Hg10 mi
Weather by CustomWeather, © 2015

See weather overviewHow to use our weather pages